EW9202 Weather Reports


Display with metric or nautical units.
time (UTC)temp
F
wind
direction
speed
MPH
gust
MPH
rain 1hr
in
rain 24hr
in
rain mn
in
humidity
%
barometer
mb
20260507070009 57 223 7.0 17.0 0.00 0.20 0.00 87 1008.8
20260507064524 56 234 3.0 10.0 0.00 0.20 0.00 91 1008.7
20260507063109 56 176 5.0 10.0 0.00 0.20 0.00 94 1008.6
20260507061539 54 240 3.0 8.0 0.00 0.20 0.00 96 1008.4
20260507060050 53 218 2.0 7.0 0.00 0.20 0.00 96 1008.3
20260507054552 52 218 1.0 5.0 0.00 0.20 0.00 96 1008.2
20260507053002 52 228 1.0 4.0 0.00 0.20 0.00 96 1008.1
20260507051514 52 208 2.0 6.0 0.00 0.20 0.00 96 1008.0
20260507050056 52 171 1.0 4.0 0.00 0.20 0.00 96 1007.8
20260507044528 52 213 1.0 3.0 0.00 0.20 0.00 96 1007.5
20260507043059 51 219 2.0 4.0 0.00 0.20 0.00 96 1007.5
20260507041551 51 209 3.0 6.0 0.00 0.20 0.00 96 1007.2
20260507040137 51 207 2.0 5.0 0.00 0.20 0.00 96 1007.2
20260507034551 51 204 1.0 3.0 0.00 0.20 0.00 95 1007.0
20260507033054 51 205 0.0 2.0 0.00 0.20 0.00 95 1007.0
20260507031527 51 202 0.0 4.0 0.00 0.20 0.00 95 1007.0
20260507030024 52 190 0.0 2.0 0.00 0.20 0.00 95 1006.8
20260507024606 52 189 1.0 5.0 0.00 0.20 0.00 95 1006.7
20260507023025 52 207 1.0 8.0 0.00 0.20 0.00 95 1006.6
20260507021516 53 200 2.0 6.0 0.00 0.20 0.00 95 1006.6
20260507020109 53 209 2.0 6.0 0.00 0.20 0.00 95 1006.5
20260507014552 54 221 3.0 8.0 0.00 0.20 0.00 95 1006.5
20260507013018 54 219 1.0 5.0 0.00 0.20 0.00 95 1006.4
20260507011546 54 211 2.0 6.0 0.00 0.20 0.00 95 1006.2
20260507010025 55 217 0.0 5.0 0.00 0.20 0.00 95 1006.0
20260507004506 55 214 2.0 6.0 0.00 0.20 0.00 95 1005.9
20260507003042 55 216 3.0 7.0 0.00 0.20 0.00 95 1005.9
20260507001511 55 229 3.0 7.0 0.00 0.20 0.00 95 1005.8
20260507000052 56 227 1.0 3.0 0.00 0.20 0.00 95 1005.6
20260506234517 56 227 0.0 2.0 0.00 0.20 0.00 95 1005.4
20260506233030 56 227 0.0 3.0 0.00 0.20 0.00 95 1005.3
20260506231608 56 229 0.0 3.0 0.00 0.20 0.00 94 1005.4
20260506230058 56 229 0.0 2.0 0.00 0.20 0.00 94 1005.4
20260506224509 57 230 2.0 6.0 0.00 0.24 0.00 94 1005.4
20260506223056 57 240 0.0 4.0 0.01 0.24 0.00 94 1005.3
20260506221613 57 253 2.0 4.0 0.01 0.24 0.00 94 1005.3
20260506220039 57 115 0.0 3.0 0.02 0.24 0.00 94 1004.9
20260506214538 57 97 1.0 6.0 0.06 0.32 0.24 93 1005.0
20260506213020 57 130 2.0 8.0 0.07 0.31 0.24 93 1004.9
20260506211532 57 129 0.0 3.0 0.13 0.31 0.24 93 1005.1
20260506210049 58 196 0.0 2.0 0.14 0.30 0.22 92 1005.1
20260506204524 58 199 1.0 6.0 0.12 0.35 0.19 91 1005.4
20260506203053 59 222 1.0 8.0 0.09 0.33 0.17 89 1005.3
20260506201529 60 191 1.0 4.0 0.03 0.27 0.10 87 1005.0
20260506200036 60 59 0.0 5.0 0.01 0.24 0.08 83 1004.2
20260506194550 60 9 0.0 3.0 0.00 0.24 0.07 82 1003.9
20260506193104 60 292 0.0 7.0 0.00 0.24 0.07 82 1003.9
20260506191504 60 350 1.0 6.0 0.00 0.24 0.07 81 1003.6
20260506190020 61 322 0.0 0.0 0.00 0.24 0.07 81 1003.9
20260506184554 61 321 1.0 4.0 0.00 0.24 0.07 79 1003.4
20260506183107 61 74 1.0 3.0 0.00 0.24 0.07 79 1003.2
20260506181514 61 35 4.0 7.0 0.00 0.24 0.07 79 1002.6
20260506180041 62 75 2.0 8.0 0.00 0.24 0.07 79 1002.4
20260506174542 62 45 4.0 9.0 0.00 0.24 0.07 79 1002.5
20260506173106 61 15 2.0 6.0 0.00 0.24 0.07 79 1002.6
20260506171534 61 72 2.0 8.0 0.00 0.24 0.07 77 1002.6
20260506164512 62 65 1.0 4.0 0.01 0.24 0.07 77 1002.5
20260506163008 62 82 1.0 6.0 0.02 0.24 0.07 80 1002.7
20260506161522 62 102 4.0 10.0 0.03 0.24 0.07 82 1003.0
20260506160032 62 309 1.0 3.0 0.03 0.24 0.07 80 1002.6
20260506154603 62 155 0.0 5.0 0.02 0.23 0.06 79 1003.2
20260506153104 63 265 2.0 8.0 0.01 0.21 0.05 72 1003.1
20260506151553 65 225 2.0 9.0 0.00 0.20 0.04 65 1003.5
20260506150053 67 291 4.0 10.0 0.00 0.20 0.04 62 1003.2
20260506144528 68 287 4.0 11.0 0.00 0.20 0.04 57 1003.3
20260506143003 70 317 5.0 10.0 0.00 0.20 0.04 55 1003.3
20260506141540 71 259 5.0 8.0 0.00 0.20 0.04 53 1003.4
20260506140106 71 311 4.0 9.0 0.00 0.20 0.04 52 1003.4
20260506134600 72 219 1.0 5.0 0.00 0.20 0.04 51 1003.4
20260506133026 72 107 0.0 7.0 0.00 0.20 0.04 50 1003.4
20260506131604 72 69 1.0 4.0 0.00 0.20 0.04 50 1003.6
20260506130031 72 300 3.0 7.0 0.00 0.20 0.04 52 1003.9
20260506124551 71 265 1.0 6.0 0.00 0.20 0.04 54 1004.1
20260506123102 72 246 4.0 10.0 0.00 0.20 0.04 55 1004.3
20260506121556 71 164 0.0 7.0 0.00 0.20 0.04 54 1004.5
20260506114517 68 218 1.0 7.0 0.00 0.20 0.04 60 1004.7
20260506113041 68 299 2.0 8.0 0.00 0.20 0.04 59 1004.9
20260506111540 67 178 3.0 10.0 0.00 0.20 0.04 61 1005.1
20260506110003 67 246 4.0 9.0 0.00 0.20 0.04 62 1005.1
20260506104517 67 230 5.0 9.0 0.00 0.20 0.04 61 1005.2
20260506103015 67 242 4.0 8.0 0.00 0.20 0.04 62 1005.4
20260506101545 66 227 2.0 11.0 0.00 0.20 0.04 65 1005.4
20260506100013 65 240 1.0 10.0 0.00 0.20 0.04 68 1005.4
20260506094552 64 214 3.0 9.0 0.00 0.20 0.04 70 1005.4
20260506093031 63 238 4.0 10.0 0.00 0.20 0.04 70 1005.2
20260506091552 64 201 3.0 14.0 0.00 0.20 0.04 67 1005.4
20260506090013 64 238 5.0 14.0 0.00 0.20 0.04 70 1005.4
20260506084612 63 207 5.0 11.0 0.00 0.20 0.04 71 1005.3
20260506083013 63 176 5.0 13.0 0.00 0.20 0.04 74 1005.4
20260506081549 62 238 4.0 16.0 0.00 0.20 0.04 76 1005.4
20260506080108 62 234 6.0 12.0 0.00 0.20 0.04 78 1005.4
20260506073049 60 229 2.0 9.0 0.00 0.20 0.04 83 1005.2
20260506071602 59 217 3.0 8.0 0.00 0.20 0.04 86 1005.3